FW1564 Weather Reports


Display with metric or nautical units.
time (UTC)temp
F
wind
direction
speed
MPH
gust
MPH
rain 1hr
in
rain 24hr
in
rain mn
in
humidity
%
barometer
mb
20260506151231 61 171 6.0 13.0 0.00 0.00 0.00 75 1015.2
20260506150231 61 144 8.0 10.0 0.00 0.00 0.00 74 1015.3
20260506145230 62 102 6.0 13.0 0.00 0.00 0.00 71 1015.3
20260506144230 63 89 6.0 13.0 0.00 0.00 0.00 70 1015.3
20260506143230 64 140 8.0 11.0 0.00 0.00 0.00 71 1015.4
20260506142229 63 226 2.0 11.0 0.00 0.01 0.00 73 1015.7
20260506141243 64 119 6.0 14.0 0.00 0.01 0.00 70 1015.7
20260506140710 64 148 5.0 11.0 0.00 0.01 0.00 71 1015.6
20260506135230 63 112 2.0 13.0 0.00 0.02 0.00 71 1015.5
20260506134715 63 157 4.0 13.0 0.00 0.03 0.00 70 1016.0
20260506133230 63 135 6.0 10.0 0.00 0.03 0.00 69 1016.1
20260506132229 64 131 3.0 9.0 0.00 0.07 0.00 68 1016.2
20260506131230 63 190 5.0 13.0 0.00 0.08 0.00 70 1016.1
20260506130230 64 165 8.0 11.0 0.00 0.08 0.00 68 1016.1
20260506125230 66 122 2.0 4.0 0.00 0.08 0.00 56 1016.3
20260506124231 67 148 4.0 7.0 0.00 0.08 0.00 50 1016.3
20260506123231 65 298 0.0 9.0 0.00 0.08 0.00 55 1016.6
20260506122230 65 277 1.0 8.0 0.00 0.08 0.00 56 1016.5
20260506121230 64 8 3.0 8.0 0.00 0.08 0.00 58 1016.4
20260506120230 63 349 3.0 10.0 0.00 0.08 0.00 58 1016.6
20260506115229 63 99 2.0 9.0 0.00 0.08 0.00 61 1016.8
20260506114230 63 69 2.0 6.0 0.00 0.08 0.00 62 1016.9
20260506113720 62 341 3.0 6.0 0.00 0.08 0.00 63 1016.9
20260506112230 62 148 2.0 6.0 0.00 0.08 0.00 65 1017.0
20260506111230 62 38 3.0 6.0 0.00 0.08 0.00 66 1017.0
20260506110230 62 108 3.0 8.0 0.00 0.08 0.00 66 1017.3
20260506105230 63 307 6.0 6.0 0.00 0.08 0.00 67 1017.3
20260506104230 61 116 1.0 6.0 0.00 0.08 0.00 68 1017.3
20260506103230 61 232 2.0 6.0 0.00 0.08 0.00 72 1017.3
20260506102230 62 314 1.0 3.0 0.00 0.08 0.00 68 1016.9
20260506101704 60 88 1.0 8.0 0.00 0.08 0.00 68 1017.3
20260506100729 62 127 5.0 8.0 0.00 0.08 0.00 72 1016.9
20260506095711 61 103 2.0 3.0 0.00 0.10 0.00 71 1017.0
20260506094231 59 155 2.0 4.0 0.00 0.12 0.00 74 1016.9
20260506093230 59 156 1.0 4.0 0.00 0.13 0.00 76 1016.8
20260506092230 59 182 2.0 4.0 0.00 0.13 0.00 76 1016.7
20260506091720 58 154 2.0 4.0 0.00 0.14 0.00 76 1016.5
20260506090230 58 167 1.0 3.0 0.00 0.16 0.00 78 1016.6
20260506085230 58 141 2.0 3.0 0.00 0.18 0.00 81 1016.4
20260506084230 58 132 1.0 3.0 0.00 0.19 0.00 82 1016.3
20260506083231 57 170 2.0 3.0 0.00 0.21 0.00 80 1016.3
20260506082230 57 191 1.0 3.0 0.00 0.22 0.00 75 1016.2
20260506081232 57 212 0.0 3.0 0.00 0.23 0.00 78 1016.1
20260506080230 56 162 1.0 6.0 0.00 0.23 0.00 78 1015.9
20260506073232 56 16 2.0 3.0 0.00 0.26 0.00 79 1015.6
20260506072705 56 346 3.0 7.0 0.00 0.27 0.00 77 1015.5
20260506071232 55 349 2.0 7.0 0.00 0.27 0.00 80 1015.4
20260506070233 55 355 3.0 7.0 0.00 0.28 0.00 80 1015.3
20260506062231 55 349 3.0 4.0 0.00 0.31 0.00 85 1015.2
20260506060231 55 333 3.0 4.0 0.00 0.32 0.00 87 1014.8
20260506051231 55 241 0.0 3.0 0.00 0.35 0.00 91 1015.2
20260506050231 55 347 0.0 4.0 0.00 0.35 0.00 91 1015.1
20260506044232 55 342 1.0 3.0 0.00 0.36 0.00 91 1015.3
20260506043232 55 328 0.0 2.0 0.00 0.36 0.00 91 1015.3
20260506042233 56 347 1.0 1.0 0.00 0.36 0.00 90 1015.2
20260506041233 56 180 0.0 2.0 0.00 0.37 0.00 89 1015.2
20260506040231 56 24 2.0 4.0 0.00 0.38 0.00 88 1014.8
20260506035232 55 352 1.0 4.0 0.00 0.39 0.00 89 1014.6
20260506034231 55 308 0.0 3.0 0.00 0.40 0.00 90 1014.7
20260506033235 55 355 1.0 3.0 0.00 0.42 0.00 91 1014.7
20260506032700 56 356 2.0 3.0 0.00 0.44 0.00 92 1015.1
20260506031710 56 0 0.0 3.0 0.00 0.47 0.00 92 1014.8
20260506030220 56 310 0.0 1.0 0.00 0.49 0.00 92 1014.9
20260506025206 56 145 0.0 4.0 0.00 0.51 0.00 91 1015.1
20260506024208 56 5 0.0 2.0 0.00 0.52 0.00 89 1015.1
20260506023210 56 272 1.0 3.0 0.00 0.53 0.00 89 1015.2
20260506022206 56 8 1.0 2.0 0.00 0.53 0.00 91 1015.3
20260506021208 56 350 1.0 3.0 0.00 0.54 0.00 90 1015.4
20260506020206 56 345 1.0 2.0 0.00 0.54 0.00 90 1015.6
20260506015642 56 353 0.0 3.0 0.00 0.55 0.00 90 1015.6
20260506014142 56 344 1.0 3.0 0.00 0.55 0.00 90 1015.5
20260506013617 56 339 2.0 3.0 0.00 0.55 0.00 91 1015.5
20260506012144 56 12 0.0 4.0 0.00 0.55 0.00 87 1015.8
20260506011143 56 352 2.0 3.0 0.00 0.55 0.00 90 1015.7
20260506010142 56 341 3.0 4.0 0.00 0.55 0.00 89 1015.9
20260506005142 56 342 1.0 4.0 0.00 0.55 0.00 89 1015.7
20260506004143 57 343 2.0 3.0 0.00 0.55 0.00 89 1015.9
20260506003142 57 343 2.0 4.0 0.00 0.55 0.00 88 1015.9
20260506002143 56 343 3.0 4.0 0.00 0.56 0.00 90 1015.9
20260506001627 56 357 2.0 4.0 0.00 0.56 0.00 89 1015.9
20260506000625 56 337 4.0 4.0 0.00 0.56 0.00 92 1015.8
20260505235624 56 327 2.0 4.0 0.00 0.56 0.00 92 1016.0
20260505234131 56 26 2.0 4.0 0.00 0.56 0.00 94 1016.0
20260505233130 57 352 3.0 3.0 0.00 0.57 0.00 95 1016.1
20260505232608 57 69 0.0 4.0 0.00 0.57 0.00 95 1015.9
20260505232106 58 17 0.0 1.0 0.00 0.57 0.00 95 1015.9
20260505230131 58 71 0.0 2.0 0.00 0.57 0.00 95 1016.1
20260505225605 58 163 0.0 4.0 0.00 0.58 0.57 95 1015.9
20260505224130 58 229 2.0 2.0 0.00 0.59 0.57 96 1015.9
20260505223130 58 159 1.0 3.0 0.00 0.59 0.57 96 1016.0
20260505222131 58 232 0.0 2.0 0.00 0.60 0.57 96 1016.1
20260505221131 58 14 0.0 1.0 0.00 0.61 0.57 96 1016.1
20260505220131 58 0 0.0 1.0 0.00 0.61 0.57 96 1016.1
20260505215107 58 24 0.0 1.0 0.00 0.61 0.57 96 1015.9
20260505214056 58 144 1.0 2.0 0.00 0.61 0.57 96 1016.0
20260505213534 58 341 1.0 1.0 0.00 0.61 0.57 96 1015.9
20260505212054 58 340 0.0 1.0 0.00 0.61 0.57 96 1015.8
20260505211054 58 20 1.0 1.0 0.00 0.61 0.57 96 1015.9
20260505210120 58 349 0.0 2.0 0.00 0.61 0.57 96 1015.8
20260505205056 58 107 1.0 2.0 0.00 0.61 0.57 96 1015.7
20260505204055 58 24 1.0 1.0 0.00 0.61 0.57 96 1015.7
20260505203057 58 123 0.0 2.0 0.00 0.61 0.57 96 1015.8
20260505202054 59 2 0.0 3.0 0.00 0.61 0.57 95 1015.5
20260505201054 59 184 3.0 3.0 0.00 0.62 0.57 95 1015.6
20260505200104 59 129 0.0 2.0 0.00 0.63 0.57 95 1015.5
20260505195532 59 193 0.0 3.0 0.00 0.63 0.57 94 1015.4
20260505194055 59 232 1.0 2.0 0.00 0.63 0.57 94 1015.3
20260505193055 60 201 2.0 6.0 0.00 0.63 0.57 93 1015.1
20260505192055 59 246 3.0 7.0 0.00 0.63 0.57 92 1014.9
20260505191539 60 78 0.0 4.0 0.00 0.63 0.57 94 1015.1
20260505190055 60 218 2.0 3.0 0.00 0.63 0.57 93 1014.8
20260505185537 60 142 3.0 6.0 0.00 0.63 0.57 93 1014.9
20260505184054 60 206 2.0 3.0 0.00 0.63 0.57 93 1014.9
20260505183054 60 30 1.0 3.0 0.00 0.63 0.57 93 1015.1
20260505182054 61 120 0.0 4.0 0.00 0.63 0.57 92 1015.1
20260505181053 61 192 1.0 3.0 0.00 0.63 0.57 92 1015.1
20260505180523 61 162 1.0 3.0 0.00 0.63 0.57 91 1014.9
20260505175043 62 96 0.0 6.0 0.00 0.63 0.57 90 1015.1
20260505174042 63 108 1.0 6.0 0.00 0.63 0.57 90 1015.3
20260505173042 63 156 0.0 7.0 0.00 0.63 0.57 87 1015.3
20260505172043 63 163 2.0 6.0 0.00 0.63 0.57 87 1015.1
20260505171042 62 146 0.0 2.0 0.00 0.63 0.57 90 1015.1
20260505170043 62 150 2.0 4.0 0.00 0.63 0.57 91 1015.2
20260505165041 63 164 4.0 4.0 0.00 0.63 0.57 91 1015.1
20260505164042 62 143 1.0 4.0 0.00 0.63 0.57 93 1015.2
20260505163043 62 155 2.0 6.0 0.00 0.63 0.57 95 1015.3
20260505162041 61 187 3.0 6.0 0.00 0.63 0.57 95 1015.3
20260505161043 61 127 3.0 6.0 0.00 0.63 0.57 95 1015.4
20260505160518 61 294 3.0 6.0 0.00 0.63 0.57 95 1015.4
20260505153043 60 101 1.0 3.0 0.00 0.63 0.57 96 1015.6